McCall, ID

1:33 AM MDT on April 20, 2018 (GMT -0600)
McCall

Weather History for KMYL - April, 2014

Change the Weather History Date:

Monday, April 7, 2014

  Actual Average Record
Temperature  
Mean Temperature 42 °F 34 °F  
Max Temperature 58 °F 45 °F 73 °F (1930)
Min Temperature 25 °F 23 °F 4 °F (1937)
Degree Days  
Heating Degree Days 23 31  
Month to date heating degree days 202 220  
Since 1 July heating degree days 7208 8009  
Cooling Degree Days 0 0  
Month to date cooling degree days 0 0  
Year to date cooling degree days 0 0  
Moisture  
Dew Point 28 °F    
Average Humidity 64    
Maximum Humidity 92    
Minimum Humidity 36    
Precipitation  
Precipitation 0.00 in 0.08 in 1.11 in (1963)
Month to date precipitation 0.39 0.51  
Year to date precipitation 11.34 6.18  
Sea Level Pressure  
Sea Level Pressure 30.32 in    
Wind  
Wind Speed 3 mph (NE)    
Max Wind Speed 10 mph    
Max Gust Speed 14 mph    
Visibility 10 miles    
Events      
T = Trace of Precipitation, MM = Missing Value Source: NWS Daily Summary

Daily Weather History Graph

Daily Weather History Graph

Search for Another Location

Airport or City:

Astronomy

Apr. 07, 2014 Rise Set
Actual Time 7:13 AM MDT 8:19 PM MDT
Civil Twilight 6:43 AM MDT 8:49 PM MDT
Nautical Twilight 6:08 AM MDT 9:25 PM MDT
Astronomical Twilight 5:30 AM MDT 10:03 PM MDT
Moon 1:07 PM MDT (4/7) 3:06 AM MDT (4/7)
Length of Visible Light 14h 05m
Length of Day
13h 05m
First Quarter, 54% of the Moon is Illuminated
Apr 7
First Quarter
Apr 15
Full
Apr 22
Last Quarter
Apr 29
New
May 6
First Quarter

Hourly Weather History & Observations

Time (MDT) Temp. Windchill Dew Point Humidity Pressure Visibility Wind Dir Wind Speed Gust Speed Precip Events Conditions
12:51 AM 30.0 °F - 26.1 °F 85% 30.32 in 10.0 mi Calm Calm - N/A   Clear
1:51 AM 28.9 °F - 25.0 °F 85% 30.32 in 10.0 mi Calm Calm - N/A   Clear
2:51 AM 28.0 °F - 25.0 °F 88% 30.32 in 10.0 mi Calm Calm - N/A   Clear
3:51 AM 27.0 °F - 23.0 °F 85% 30.32 in 9.0 mi Calm Calm - N/A   Clear
4:51 AM 27.0 °F - 24.1 °F 89% 30.33 in 10.0 mi Calm Calm - N/A   Clear
5:51 AM 27.0 °F - 23.0 °F 85% 30.36 in 10.0 mi Calm Calm - N/A   Clear
6:51 AM 26.1 °F 21.9 °F 23.0 °F 88% 30.37 in 10.0 mi NNE 3.5 mph - N/A   Clear
7:51 AM 27.0 °F - 24.1 °F 89% 30.38 in 10.0 mi Calm Calm - N/A   Clear
8:51 AM 28.9 °F - 26.1 °F 89% 30.40 in 9.0 mi Calm Calm - N/A   Clear
10:51 AM 39.0 °F 36.8 °F 30.0 °F 70% 30.39 in 10.0 mi South 3.5 mph - N/A   Clear
11:51 AM 45.0 °F 43.5 °F 30.9 °F 58% 30.37 in 10.0 mi Variable 3.5 mph - N/A   Clear
12:51 PM 48.0 °F - 30.9 °F 52% 30.36 in 10.0 mi South 5.8 mph - N/A   Clear
1:51 PM 52.0 °F - 30.9 °F 45% 30.33 in 10.0 mi Variable 3.5 mph - N/A   Clear
2:51 PM 53.1 °F - 30.9 °F 43% 30.32 in 10.0 mi Variable 4.6 mph - N/A   Clear
3:51 PM 54.0 °F - 30.9 °F 41% 30.30 in 10.0 mi South 4.6 mph - N/A   Clear
4:51 PM 57.0 °F - 30.9 °F 37% 30.27 in 10.0 mi North - - N/A   Clear
5:51 PM 57.0 °F - 33.1 °F 40% 30.27 in 10.0 mi Variable 3.5 mph - N/A   Clear
6:51 PM 55.9 °F - 30.9 °F 39% 30.28 in 10.0 mi NW 6.9 mph - N/A   Clear
7:51 PM 54.0 °F - 30.9 °F 41% 30.26 in 10.0 mi Calm Calm - N/A   Clear
8:51 PM 45.0 °F 42.6 °F 32.0 °F 60% 30.29 in 10.0 mi NE 4.6 mph - N/A   Clear
9:51 PM 39.9 °F 37.8 °F 30.9 °F 70% 30.30 in 10.0 mi NNW 3.5 mph - N/A   Clear
11:51 PM 34.0 °F - 28.9 °F 82% 30.29 in 10.0 mi Calm Calm - N/A   Clear